Flag for France Weather past 2 weeks in Taiohae, Marquesas Islands, France

Now
72 °F

Passing clouds.


Feels Like: 75 °F
Forecast: 78 / 81 °F
Wind: 3 mph from East

Location: Tahiti-Faaa

Current Time: Jul 22, 2014 at 11:19:46 PM

Latest Report: Jul 22, 2014 at 10:30 PM


Visibility: N/A

Pressure: 29.95 "Hg

Humidity: 69%

Dew point: 61 °F

Location of TaiohaeLocation

Historic Weather in Taiohae — Graph

°F

Taiohae temperature yesterday

Maximum temperature yesterday: 84 °F (at 1:00 PM)
Minimum temperature yesterday: 72 °F (at 3:00 AM)
Average temperature yesterday: 77 °F

Past Weeks' High & Low Weather Summary

 TemperatureHumidityPressure
High86 °F (Jul 12, 1:00 PM)94% (Jul 15, 6:37 AM)30.07 "Hg (Jul 15, 6:37 AM)
Low70 °F (Jul 8, 6:00 AM)55% (Jul 19, 1:00 PM)29.74 "Hg (Jul 10, 4:00 PM)
Average78 °F75%29.93 "Hg
* Reported Jul 7 8:30 PM — Jul 22 8:30 PM, Taiohae, Weather by CustomWeather, © 2014

Note: Actual official high and low records may vary slightly from our data, if they occured in-between our weather recording intervals... More about our weather records

Advertising

Taiohae weather history for previous 24 hours

 ConditionsComfort  
Time TempWeatherWind HumidityBarometerVisibility
8:30 PM
Jul 22
75 °FPassing clouds.7 mph61%29.95 "HgN/A
8:00 PM75 °FPassing clouds.3 mph65%29.95 "HgN/A
7:30 PM75 °FPassing clouds.6 mph65%29.92 "HgN/A
7:00 PM77 °FPassing clouds.8 mph65%29.92 "HgN/A
6:30 PM79 °FPassing clouds.9 mph61%29.92 "HgN/A
6:00 PM79 °FPassing clouds.14 mph61%29.92 "HgN/A
5:30 PM81 °FPassing clouds.12 mph58%29.89 "HgN/A
5:00 PM81 °FPassing clouds.15 mph58%29.89 "HgN/A
4:30 PM82 °FPassing clouds.15 mph58%29.89 "HgN/A
4:00 PM82 °FPassing clouds.14 mph58%29.89 "HgN/A
3:30 PM82 °FPassing clouds.14 mph58%29.89 "HgN/A
2:00 PM82 °FPassing clouds.21 mph58%29.92 "HgN/A
7:30 AM72 °FPassing clouds.2 mph83%29.98 "HgN/A
7:00 AM72 °FPassing clouds.5 mph83%29.98 "HgN/A
6:30 AM72 °FPassing clouds.3 mph78%29.98 "HgN/A
6:00 AM70 °FMild.No wind83%29.98 "HgN/A
5:30 AM70 °FMild.2 mph83%29.95 "HgN/A
5:00 AM70 °FMild.1 mph83%29.95 "HgN/A
4:30 AM70 °FMild.2 mph83%29.95 "HgN/A
4:00 AM72 °FMild.2 mph78%29.95 "HgN/A
3:30 AM72 °FPassing clouds.No wind78%29.92 "HgN/A
3:00 AM72 °FPassing clouds.No wind78%29.92 "HgN/A
2:30 AM72 °FPassing clouds.2 mph83%29.95 "HgN/A
2:00 AM72 °FPassing clouds.2 mph83%29.95 "HgN/A
1:30 AM73 °FPassing clouds.2 mph78%29.95 "HgN/A
1:00 AM73 °FPassing clouds.2 mph78%29.95 "HgN/A
12:30 AM73 °FPassing clouds.6 mph78%29.95 "HgN/A
12:00 AM72 °FPassing clouds.No wind78%29.95 "HgN/A
11:30 PM
Jul 21
73 °FPassing clouds.2 mph74%29.95 "HgN/A
11:00 PM73 °FPassing clouds.2 mph78%29.95 "HgN/A
Weather by CustomWeather, © 2014

See weather overviewHow to use our weather pages